Location: Hilton Head Island
(32.2163°N, 80.7526°W)
Time: 13:08:14
(UTC-05:00)

Vanguard 2 - Pass Details

Date: 20 February 2026
Orbit: 553 x 2896 km, 32.9° (Epoch: 6 March)

Event Time Altitude Azimuth Distance (km) Brightness Sun altitude
Exits shadow 03:52:46 27° 117° (ESE) 1,821 9.7 -40.2°
Drops below altitude 10° 03:55:37 10° 93° (E) 2,496 10.8 -39.6°
Sets 03:57:50 0° 84° (E) 3,227 11.6 -39.2°
